Port Isabel, TX

10:03 AM CDT on October 19, 2017 (GMT -0500)
Port Isabel-Cameron County

Weather History for KPIL - December, 2012

Change the Weather History Date:

Saturday, December 22, 2012

  Actual Average (KBRO) Record (KBRO)
Temperature  
Mean Temperature 64 °F -  
Max Temperature 75 °F 68 °F 87 °F (1900)
Min Temperature 54 °F 47 °F 23 °F (1989)
Growing Degree Days 14 (Base 50)    
Moisture  
Dew Point 56 °F    
Average Humidity 68    
Maximum Humidity 87    
Minimum Humidity 51    
Precipitation  
Precipitation 0.00 in - - ()
Sea Level Pressure  
Sea Level Pressure 30.22 in    
Wind  
Wind Speed 9 mph (SE)    
Max Wind Speed 23 mph    
Max Gust Speed 30 mph    
Visibility 10 miles    
Events      
Averages and records for this station are not official NWS values.
T = Trace of Precipitation, MM = Missing Value Source: NWS Daily Summary

Daily Weather History Graph

Daily Weather History Graph

Search for Another Location

Airport or City:

Trip Planner

Search our weather history database for the weather conditions in past years. The results will help you decide how hot, cold, wet, or windy it might be!

Date:

Astronomy

Dec. 22, 2012 Rise Set
Actual Time 7:13 AM CST 5:43 PM CST
Civil Twilight 6:47 AM CST 6:08 PM CST
Nautical Twilight 6:19 AM CST 6:37 PM CST
Astronomical Twilight 5:50 AM CST 7:05 PM CST
Moon 1:46 PM CST (12/22) 2:17 AM CST (12/22)
Length of Visible Light 11h 20m
Length of Day
10h 30m
Waxing Gibbous, 74% of the Moon is Illuminated
Dec 22
Waxing Gibbous
Dec 28
Full
Jan 4
Last Quarter
Jan 11
New
Jan 18
First Quarter

Hourly Weather History & Observations

Time (CST) Temp. Dew Point Humidity Pressure Visibility Wind Dir Wind Speed Gust Speed Precip Events Conditions
12:53 AM 54.0 °F 48.0 °F 80% 30.32 in 10.0 mi East 4.6 mph - N/A   Clear
1:53 AM 55.9 °F 50.0 °F 80% 30.31 in 10.0 mi ESE 4.6 mph - N/A   Clear
2:53 AM 55.9 °F 50.0 °F 80% 30.30 in 10.0 mi ESE 4.6 mph - N/A   Clear
3:53 AM 55.9 °F 51.1 °F 84% 30.29 in 10.0 mi ESE 5.8 mph - N/A   Clear
4:53 AM 55.9 °F 52.0 °F 87% 30.29 in 10.0 mi East 5.8 mph - N/A   Partly Cloudy
6:53 AM 62.1 °F 54.0 °F 75% 30.30 in 10.0 mi ESE 8.1 mph - N/A   Mostly Cloudy
7:53 AM 64.0 °F 54.0 °F 70% 30.30 in 10.0 mi ESE 8.1 mph - N/A   Clear
8:53 AM 70.0 °F 55.0 °F 59% 30.30 in 10.0 mi SE 13.8 mph 29.9 mph N/A   Clear
9:53 AM 73.0 °F 55.0 °F 53% 30.30 in 10.0 mi SE 17.3 mph - N/A   Clear
10:53 AM 73.9 °F 55.0 °F 52% 30.28 in 10.0 mi SE 23.0 mph 26.5 mph N/A   Mostly Cloudy
11:53 AM 75.0 °F 55.9 °F 51% 30.25 in 10.0 mi SE 20.7 mph 27.6 mph N/A   Mostly Cloudy
12:53 PM 73.0 °F 55.9 °F 55% 30.23 in 10.0 mi SE 15.0 mph 21.9 mph N/A   Overcast
1:53 PM 72.0 °F 57.0 °F 59% 30.21 in 9.0 mi SSE 10.4 mph - N/A   Overcast
2:53 PM 72.0 °F 57.9 °F 61% 30.17 in 10.0 mi SSE 17.3 mph 25.3 mph 0.00 in   Overcast
3:53 PM 73.0 °F 57.9 °F 59% 30.16 in 10.0 mi SSE 19.6 mph - N/A   Overcast
4:53 PM 71.1 °F 59.0 °F 66% 30.16 in 9.0 mi SSE 12.7 mph 21.9 mph N/A   Overcast
5:53 PM 72.0 °F 59.0 °F 64% 30.15 in 10.0 mi South 10.4 mph - N/A   Overcast
6:53 PM 69.1 °F 57.9 °F 68% 30.16 in 10.0 mi South 6.9 mph - N/A   Mostly Cloudy
7:53 PM 66.9 °F 59.0 °F 76% 30.15 in 10.0 mi SSE 6.9 mph - N/A   Mostly Cloudy
8:53 PM 68.0 °F 59.0 °F 73% 30.14 in 10.0 mi SSE 8.1 mph - N/A   Clear
9:53 PM 68.0 °F 59.0 °F 73% 30.14 in 10.0 mi SSE 6.9 mph - N/A   Scattered Clouds
10:53 PM 70.0 °F 60.1 °F 71% 30.11 in 10.0 mi SSE 10.4 mph - N/A   Mostly Cloudy
11:53 PM 71.1 °F 61.0 °F 70% 30.13 in 10.0 mi South 4.6 mph - N/A   Overcast